Regional Weather Roundup
Issued by NWS

Home | Current Version | Previous Version | Text Only | Print | Product List | Glossary On
Versions: 1 2 3 4 5 6 7 8 9 10 11 12 13 14 15 16 17 18 19 20 21 22 23 24 25 26 27 28 29 30 31 32 33 34 35 36 37 38 39 40 41 42 43 44 45 46 47 48 49 50
000
ASUS43 KOAX 061710
RWRNE

WEATHER ROUNDUP FOR NEBRASKA
NATIONAL WEATHER SERVICE OMAHA NE
1200 PM CDT WED MAY 06 2015

NOTES: SATELLITE DATA IS BEING USED TO AUGMENT CLOUD COVER ABOVE
       12000 FEET.
       "FAIR" INDICATES FEW OR NO CLOUDS BELOW 12,000 FEET WITH NO
       SIGNIFICANT WEATHER AND/OR OBSTRUCTIONS TO VISIBILITY.

  * THESE STATIONS DO NOT REPORT WEATHER SUCH AS RAIN...SNOW OR FOG.

NEZ001>004-019>022-054>056-061800-
NEBRASKA PANHANDLE

CITY           SKY/WX    TMP DP  RH WIND       PRES   REMARKS
SCOTTSBLUFF    CLOUDY    60  53  77 E8        29.66F
ALLIANCE       CLOUDY    58  51  78 S10G20    29.66F
CHADRON        CLOUDY    59  52  77 CALM      29.66F
KIMBALL        CLOUDY    54  53  95 NE7       29.66S
SIDNEY         CLOUDY    54  53  97 E10       29.65F FOG
$$

NEZ057>060-069>072-079>082-061800-
SOUTHWEST NEBRASKA

CITY           SKY/WX    TMP DP  RH WIND       PRES   REMARKS
NORTH PLATTE   CLOUDY    63  56  78 SE10      29.68F
IMPERIAL       CLOUDY    60  52  74 SE10      29.67S
LEXINGTON      PTSUNNY   67  59  76 SE15G23   29.70S
MCCOOK         CLOUDY    66  54  65 S17G24    29.68S
OGALLALA       CLOUDY    60  53  79 SE8       29.67S
$$

NEZ005>010-023>029-035>040-094-061800-
NORTH CENTRAL NEBRASKA

CITY           SKY/WX    TMP DP  RH WIND       PRES   REMARKS
VALENTINE      CLOUDY    64  58  80 SE14      29.68F
AINSWORTH      CLOUDY    64  61  91 SE13      29.69F
BROKEN BOW     CLOUDY    64  59  83 S16       29.71S
O`NEILL        LGT RAIN  64  61  91 S15G22    29.73F
ORD            LGT RAIN  63  59  87 SE16G22   29.71F
THEDFORD       CLOUDY    63  58  83 S15       29.69S
$$

NEZ041-046>049-061>064-073>077-083>087-061800-
SOUTH CENTRAL NEBRASKA

CITY           SKY/WX    TMP DP  RH WIND       PRES   REMARKS
GRAND ISLAND   CLOUDY    65  58  78 S18G25    29.77S
AURORA         CLOUDY    64  61  88 S16G25    29.78S
HASTINGS       CLOUDY    62  58  86 S14       29.76S
HEBRON         CLOUDY    63  59  86 S17G24    29.80F
HOLDREGE       CLOUDY    61  57  85 S20G26    29.72S
KEARNEY *      CLOUDY    64  57  77 S22       29.74S
YORK           CLOUDY    64  59  82 S16       29.80R
$$

NEZ011>018-030>034-042>045-061800-
NORTHEAST NEBRASKA

CITY           SKY/WX    TMP DP  RH WIND       PRES   REMARKS
NORFOLK        LGT RAIN  63  61  93 S21       29.78S
ALBION         LGT RAIN  62  60  94 S18G24    29.77S
BLAIR          CLOUDY    69  59  71 S23G32    29.84S
COLUMBUS *     CLOUDY    66  57  72 S21G29    29.81S
FREMONT        CLOUDY    68  62  79 SE17G26   29.83S
TEKAMAH        CLOUDY    72  62  71 S25       29.83S
WAYNE          CLOUDY    65  61  86 S24       29.80S
$$

NEZ050>053-065>068-078-088>093-061800-
SOUTHEAST NEBRASKA

CITY           SKY/WX    TMP DP  RH WIND       PRES   REMARKS
LINCOLN        LGT RAIN  66  60  81 S23G29    29.82S
OMAHA EPPLEY   CLOUDY    70  60  70 S21G32    29.85S
BEATRICE       CLOUDY    63  60  91 S10       29.84S
FALLS CITY     PTSUNNY   70  59  68 S22G31    29.90R
NEBRASKA CITY  CLOUDY    69  58  66 S26G36    29.88S
PLATTSMOUTH    CLOUDY    69  59  69 S18G26    29.87S
$$

NEZ044-045-051>053-067-061800-
OMAHA AREA

CITY           SKY/WX    TMP DP  RH WIND       PRES   REMARKS
OMAHA EPPLEY   CLOUDY    70  60  70 S21G32    29.85S
BLAIR          CLOUDY    69  59  71 S23G32    29.84S
FREMONT        CLOUDY    68  62  79 SE17G26   29.83S
MILLARD        CLOUDY    71  60  69 S21G29    29.85R
OFFUTT AFB     CLOUDY    71  61  72 SE20G28   29.85S
PLATTSMOUTH    CLOUDY    69  59  69 S18G26    29.87S
$$


USA.gov is the U.S. government's official web portal to all federal, state and local government web resources and services.